Hourly Data Report for September 08, 2017

All times are specified in Local Standard Time (LST). Add 1 hour to adjust for Daylight Saving Time where and when it is observed.

GRAND MANAN SAR CS
NEW BRUNSWICK

44°42'43.400" N
66°48'06.900" W
78.20 m
8101925
71030
XGM

Download Data

Hourly Data (September 2017)
Hourly Data Report for September 8, 2017
Temp Definition
°C
Dew Point Temp Definition
°C
Rel Hum Definition
%
Wind Dir Definition
10's deg

Wind Spd Definition
km/h
Visibility Definition
km
Stn Press Definition
kPa
Hmdx Definition


Wind Chill Definition


Weather Definition


TIME
00:00 14.0 13.7 99 23 13   100.19     LegendNANA
01:00 14.1 13.9 98 25 13   100.22     LegendNANA
02:00 14.0 13.8 98 24 15   100.24     LegendNANA
03:00 13.5 13.3 99 25 8   100.23     LegendNANA
04:00 13.0 12.8 99 26 9   100.21     LegendNANA
05:00 12.4 12.2 99 25 6   100.30     LegendNANA
06:00 11.8 11.7 99 25 5   100.38     LegendNANA
07:00 13.1 12.9 99 26 6   100.48     LegendNANA
08:00 15.4 13.9 90 25 5   100.57     LegendNANA
09:00 16.9 13.2 79 28 5   100.61     LegendNANA
10:00 18.5 13.2 71 28 6   100.66     LegendNANA
11:00 19.2 10.9 59 25 6   100.69     LegendNANA
12:00 20.5 12.6 61 19 8   100.68     LegendNANA
13:00 19.9 12.0 60 18 13   100.72     LegendNANA
14:00 19.5 11.1 58 19 15   100.74     LegendNANA
15:00 19.4 10.6 57 21 17   100.75     LegendNANA
16:00 17.2 11.7 70 22 18   100.78     LegendNANA
17:00 16.5 10.9 70 20 16   100.81     LegendNANA
18:00 14.4 11.5 83 21 11   100.81     LegendNANA
19:00 13.5 12.1 91 24 11   100.83     LegendNANA
20:00 12.9 11.9 94 25 10   100.91     LegendNANA
21:00 13.3 11.9 91 24 12   100.92     LegendNANA
22:00 12.7 11.8 95 25 9   100.91     LegendNANA
23:00 11.1 10.5 96 23 3   100.95     LegendNANA

Notes on Data Quality.

Legend

  • E = Estimated
  • M = Missing
  • NA = Not Available
  • ‡ = Partner data that is not subject to review by the National Climate Archives
Date modified: